BEIDOU G1

Last updated on April 2, 2019, 3:15 a.m. UTC

1 36287U 10001A   19091.55327170 -.00000297  00000-0  00000+0 0  9996
2 36287   1.4420 351.9831 0001840 170.0153   6.8187  1.00275383 33767
UTC
Height (km)
Latitude
Longitude
Inclination
Orbital Period
UTC large
Height (km)
Speed (km/s)
/
Latitude / Longitude
Inclination (degrees)
Orbital Period (minutes)
Azimuth
Elevation
Range (km)
Doppler Factor
iOS Compass Heading
iOS Angle

Next 30 passes for location: Hong Kong

Rise time Rise Azimuth (degrees) Set time Set Azimuth (degrees) Duration Max altitude (degrees)

No matching passes for this satellites